Defiance, OH

7:21 AM EST on January 24, 2018 (GMT -0500)
Defiance Memorial

Weather History for KDFI - February, 2014

Change the Weather History Date:

Tuesday, February 4, 2014

  Actual Average Record
Temperature  
Mean Temperature 14 °F -  
Max Temperature 23 °F 30 °F 51 °F (2008)
Min Temperature 5 °F 15 °F -8 °F (1985)
Degree Days  
Heating Degree Days 51    
Moisture  
Dew Point 13 °F    
Average Humidity 81    
Maximum Humidity 93    
Minimum Humidity 60    
Precipitation  
Precipitation 0.05 in - - ()
Sea Level Pressure  
Sea Level Pressure 30.28 in    
Wind  
Wind Speed 5 mph (NE)    
Max Wind Speed 12 mph    
Max Gust Speed 20 mph    
Visibility 4 miles    
Events Fog , Snow    
Averages and records for this station are not official NWS values.
T = Trace of Precipitation, MM = Missing Value Source: NWS Daily Summary

Daily Weather History Graph

Daily Weather History Graph

Search for Another Location

Airport or City:

Trip Planner

Search our weather history database for the weather conditions in past years. The results will help you decide how hot, cold, wet, or windy it might be!

Date:

Astronomy

Feb. 04, 2014 Rise Set
Actual Time 7:45 AM EST 5:57 PM EST
Civil Twilight 7:16 AM EST 6:26 PM EST
Nautical Twilight 6:44 AM EST 6:59 PM EST
Astronomical Twilight 6:11 AM EST 7:32 PM EST
Moon 10:19 AM EST (2/4) 11:55 PM EST (2/4)
Length of Visible Light 11h 10m
Length of Day
10h 12m
Waxing Crescent, 29% of the Moon is Illuminated
Feb 4
Waxing Crescent
Feb 6
First Quarter
Feb 14
Full
Feb 22
Last Quarter
Mar 1
New

Hourly Weather History & Observations

Time (EST) Temp. Windchill Dew Point Humidity Pressure Visibility Wind Dir Wind Speed Gust Speed Precip Events Conditions
12:53 AM 6.1 °F - 1.0 °F 80% 30.42 in 6.0 mi Calm Calm - N/A   Haze
1:53 AM 5.0 °F - 1.0 °F 84% 30.42 in 5.0 mi Calm Calm - N/A   Clear
2:53 AM 6.1 °F - 1.9 °F 83% 30.42 in 6.0 mi Calm Calm - N/A   Clear
3:53 AM 6.1 °F - 1.9 °F 83% 30.42 in 5.0 mi Calm Calm - N/A   Clear
4:53 AM 8.1 °F - 3.0 °F 80% 30.45 in 5.0 mi Calm Calm - N/A   Haze
5:53 AM 8.1 °F - 3.9 °F 83% 30.47 in 5.0 mi Calm Calm - N/A   Clear
6:53 AM 10.0 °F 3.6 °F 5.0 °F 80% 30.44 in 5.0 mi NNE 3.5 mph - N/A   Haze
7:53 AM 10.9 °F - 7.0 °F 84% 30.45 in 4.0 mi Calm Calm - N/A   Clear
8:53 AM 12.9 °F - 9.0 °F 84% 30.48 in 4.0 mi Calm Calm - N/A   Clear
9:53 AM 16.0 °F 10.4 °F 10.9 °F 81% 30.46 in 4.0 mi East 3.5 mph - N/A   Haze
10:53 AM 18.0 °F 8.7 °F 10.9 °F 74% 30.45 in 6.0 mi ENE 6.9 mph - N/A   Haze
11:53 AM 19.9 °F 13.4 °F 10.9 °F 68% 30.42 in 9.0 mi ENE 4.6 mph - N/A   Clear
12:53 PM 21.0 °F 14.6 °F 12.0 °F 68% 30.38 in 10.0 mi ENE 4.6 mph - N/A   Clear
1:53 PM 21.9 °F 14.5 °F 12.0 °F 66% 30.36 in 10.0 mi NE 5.8 mph - N/A   Scattered Clouds
2:53 PM 23.0 °F 14.7 °F 10.9 °F 60% 30.35 in 10.0 mi East 6.9 mph - N/A   Overcast
3:53 PM 23.0 °F 14.7 °F 12.0 °F 63% 30.35 in 10.0 mi NNE 6.9 mph - N/A   Overcast
4:53 PM 23.0 °F 13.9 °F 12.9 °F 65% 30.32 in 9.0 mi NE 8.1 mph - N/A   Overcast
5:53 PM 21.9 °F 13.4 °F 14.0 °F 72% 30.32 in 6.0 mi NNE 6.9 mph - N/A   Haze
6:18 PM 21.2 °F 11.7 °F 14.0 °F 74% 30.27 in 2.5 mi NNE 8.1 mph - 0.00 in Snow Light Snow
6:22 PM 21.2 °F 10.9 °F 15.8 °F 80% 30.27 in 1.8 mi NNE 9.2 mph - 0.00 in Snow Light Snow
6:41 PM 21.2 °F 10.9 °F 15.8 °F 80% 30.28 in 0.8 mi NNE 9.2 mph - 0.00 in Snow Light Snow
6:53 PM 21.0 °F 10.6 °F 16.0 °F 81% 30.32 in 0.8 mi NE 9.2 mph - 0.01 in Snow Light Snow
7:22 PM 19.4 °F 8.6 °F 15.8 °F 86% 30.21 in 0.8 mi ENE 9.2 mph - 0.00 in Snow Light Snow
7:32 PM 19.4 °F 8.6 °F 15.8 °F 86% 30.21 in 0.8 mi NE 9.2 mph - 0.01 in Snow Light Snow
7:44 PM 19.4 °F 8.6 °F 15.8 °F 86% 30.20 in 1.0 mi NE 9.2 mph - 0.01 in Snow Light Snow
7:53 PM 19.9 °F 8.6 °F 16.0 °F 85% 30.24 in 1.0 mi NE 10.4 mph - 0.01 in Snow Light Snow
8:05 PM 19.4 °F 9.5 °F 15.8 °F 86% 30.19 in 0.5 mi NE 8.1 mph - 0.00 in Fog , Snow Snow
8:19 PM 19.4 °F 9.5 °F 15.8 °F 86% 30.20 in 0.8 mi NE 8.1 mph - 0.01 in Snow Light Snow
8:27 PM 19.4 °F 8.6 °F 17.6 °F 93% 30.19 in 0.8 mi NE 9.2 mph - 0.01 in Snow Light Snow
8:37 PM 21.2 °F 10.1 °F 17.6 °F 86% 30.16 in 1.0 mi NE 10.4 mph - 0.01 in Snow Light Snow
8:44 PM 21.2 °F 10.9 °F 17.6 °F 86% 30.17 in 0.8 mi NE 9.2 mph - 0.02 in Snow Light Snow
8:53 PM 21.0 °F 11.4 °F 17.1 °F 85% 30.20 in 0.8 mi NE 8.1 mph - 0.02 in Snow Light Snow
9:06 PM 21.2 °F 9.5 °F 17.6 °F 86% 30.15 in 1.0 mi NE 11.5 mph 18.4 mph 0.00 in Snow Light Snow
9:19 PM 21.2 °F 10.1 °F 17.6 °F 86% 30.13 in 1.2 mi ENE 10.4 mph 19.6 mph 0.00 in Snow Light Snow
9:48 PM 21.2 °F 10.9 °F 17.6 °F 86% 30.13 in 1.0 mi ENE 9.2 mph - 0.01 in Snow Light Snow
9:53 PM 21.0 °F 9.9 °F 17.1 °F 85% 30.17 in 1.0 mi ENE 10.4 mph - 0.01 in Snow Light Snow
10:05 PM 21.2 °F 11.7 °F 17.6 °F 86% 30.15 in 2.0 mi ENE 8.1 mph - 0.00 in Snow Light Snow
10:10 PM 21.2 °F 12.6 °F 17.6 °F 86% 30.15 in 3.0 mi ENE 6.9 mph - 0.00 in Snow Light Snow
10:40 PM 21.2 °F 10.1 °F 17.6 °F 86% 30.11 in 2.5 mi ENE 10.4 mph - 0.00 in Snow Light Snow
10:53 PM 21.0 °F 9.3 °F 17.1 °F 85% 30.13 in 2.0 mi NE 11.5 mph - 0.00 in Snow Light Snow
11:03 PM 21.2 °F 10.9 °F 17.6 °F 86% 30.09 in 1.8 mi NE 9.2 mph 17.3 mph 0.00 in Snow Light Snow
11:27 PM 21.2 °F 11.7 °F 17.6 °F 86% 30.07 in 2.0 mi NE 8.1 mph 17.3 mph 0.00 in Snow Light Snow
11:53 PM 21.0 °F 11.4 °F 17.1 °F 85% 30.10 in 1.8 mi ENE 8.1 mph - 0.00 in Snow Light Snow